User: anonymous   Login
Location: Unspecified
(0.0000°N, 0.0000°E)
Time: 08:56:16
(UTC+00:00)
Language:

AEHF 3 (USA 246) - Orbit

View from above orbital plane
View from above orbital plane
View from above satellite
View from above satellite

Ground track
Ground track

The orbit data is extracted from the following two-line orbital elements,

1 39256U 13050A   19022.10244163 -.00000189 +00000-0 +00000-0 0  9998
2 39256 001.4248 309.3454 0006636 016.5102 344.4416 01.00270501018573
Epoch (UTC): 22 January 2019 02:27:30
Eccentricity: 0.0006636
inclination: 1.4248°
perigee height: 35758 km
apogee height: 35814 km
right ascension of ascending node: 309.3454°
argument of perigee: 16.5102°
revolutions per day: 1.00270501
mean anomaly at epoch: 344.4416°
orbit number at epoch: 1857

The dashed part of the orbit path shows where the satellite is in the earth's shadow,  

DLR